This is the latest recevied weather packets stored in our database for station/object VK3XEM-13. If no packets are shown the sender has not sent any weather packets the latest 10 day(s).
| Time | Temp. | Humidity | Pressure | Rain* | Wind** | Luminosity | Snow |
|---|---|---|---|---|---|---|---|
| 1778115734 | 7.22° C | 92% | 1020.2 hPa | 0.76 mm | - | 161 W/m² | - |
| 1778114835 | 6.67° C | 91% | 1020.2 hPa | 0.76 mm | - | 219 W/m² | - |
| 1778113935 | 6.67° C | 91% | 1020.2 hPa | 0.76 mm | - | 59 W/m² | - |
| 1778113034 | 6.67° C | 92% | 1019.8 hPa | 1.02 mm | - | 226 W/m² | - |
| 1778112135 | 6.67° C | 93% | 1019.8 hPa | 2.79 mm | - | 162 W/m² | - |
| 1778111234 | 5.56° C | 92% | 1019.8 hPa | 3.56 mm | - | 107 W/m² | - |
| 1778110334 | 5.56° C | 92% | 1019.5 hPa | 4.83 mm | - | 93 W/m² | - |
| 1778109434 | 5° C | 91% | 1019.5 hPa | 4.57 mm | - | 72 W/m² | - |
| 1778108534 | 5.56° C | 92% | 1019.8 hPa | 2.79 mm | - | 69 W/m² | - |
| 1778107634 | 6.11° C | 91% | 1019.5 hPa | 4.83 mm | - | 10 W/m² | - |
| 1778106734 | 5.56° C | 91% | 1018.5 hPa | 4.57 mm | - | 77 W/m² | - |
| 1778105835 | 5.56° C | 91% | 1018.1 hPa | 4.57 mm | - | 39 W/m² | - |
| 1778104934 | 5° C | 91% | 1019.2 hPa | 4.83 mm | - | 3 W/m² | - |
| 1778104034 | 5.56° C | 90% | 1018.5 hPa | 2.29 mm | - | 2 W/m² | - |
| 1778103135 | 5.56° C | 90% | 1017.5 hPa | 3.05 mm | - | 6 W/m² | - |
| 1778102235 | 5° C | 91% | 1017.1 hPa | 3.05 mm | - | 4 W/m² | - |
| 1778101335 | 5.56° C | 91% | 1017.5 hPa | 3.3 mm | - | 0 W/m² | - |
| 1778100434 | 5.56° C | 90% | 1017.1 hPa | 3.56 mm | - | 0 W/m² | - |
| 1778099534 | 5° C | 92% | 1017.1 hPa | 2.03 mm | - | 0 W/m² | - |
| 1778098634 | 5° C | 92% | 1017.1 hPa | 2.03 mm | - | 0 W/m² | - |
| 1778097734 | 5° C | 92% | 1016.8 hPa | 1.52 mm | - | 0 W/m² | - |
| 1778096835 | 5° C | 92% | 1016.8 hPa | 1.27 mm | - | 0 W/m² | - |
| 1778095935 | 5° C | 92% | 1016.8 hPa | 2.79 mm | - | 0 W/m² | - |
| 1778095035 | 5° C | 91% | 1016.5 hPa | 3.56 mm | - | 0 W/m² | - |
| 1778094135 | 5° C | 90% | 1016.5 hPa | 3.3 mm | - | 0 W/m² | - |
* Rain latest hour (hover to see other rain measurements)
** Current wind speed in m/s (hover to see current wind gust speed)